ボク彗星

C/2022 U3 ( Bok )

English version
Home page
Updated on December 30, 2022

---------------------------------------------------------------------

・ プロフィール

発見日 2022年10月31日
発見光度 19.6等
発見者 Hannes Groeller and Cassandra Lejoly (Bok NEO Survey)

・ 写真集

・ 軌道要素

Epoch 2023 Feb. 25.0 TT = JDT 2460000.5
T 2024 July 27.67173 TT                                 Rudenko
q   4.8296288            (2000.0)            P               Q
z  -0.0006331      Peri.  188.95821     -0.17790854     -0.81394272
 +/-0.0000131      Node   272.80840     +0.93366919     +0.03789214
e   1.0030577      Incl.   33.62110     +0.31082212     -0.57970806
>From 123 observations 2021 June 23-2022 Dec. 23, mean residual 0".5.

・ 光度変化

        m1 = 3.0 + 5 logΔ + 15.0 log r

---------------------------------------------------------------------

軌道要素はM.P.E.C. 2022-Y114に掲載されたものです。
光度グラフはComet for Windowsで作成したものです。

---------------------------------------------------------------------

Copyright(C) Seiichi Yoshida (comet@aerith.net). All rights reserved.